Time,TemperatureF,DewpointF,PressureIn,WindDirection,WindDirectionDegrees,WindSpeedMPH,WindSpeedGustMPH,Humidity,HourlyPrecipIn,Conditions,Clouds,dailyrainin,SoftwareType,DateUTC
2013-04-04 00:03:00,33.6,17.0,21.85,NW,315,0.0,0.0,50,0.00,,---,0.00,VWS V14.01,2013-04-04 06:03:00,
2013-04-04 00:09:00,33.3,17.1,21.85,NW,315,0.0,0.0,51,0.00,,---,0.00,VWS V14.01,2013-04-04 06:09:00,
2013-04-04 00:14:00,34.2,17.0,21.85,NW,315,0.0,4.0,49,0.00,,---,0.00,VWS V14.01,2013-04-04 06:14:00,
2013-04-04 00:20:00,34.2,16.5,21.85,NW,315,0.0,2.7,48,0.00,,---,0.00,VWS V14.01,2013-04-04 06:20:00,
2013-04-04 00:25:00,34.2,16.0,21.85,NW,315,0.0,0.0,47,0.00,,---,0.00,VWS V14.01,2013-04-04 06:25:00,
2013-04-04 00:30:00,34.3,16.7,21.85,NW,315,0.0,0.0,48,0.00,,---,0.00,VWS V14.01,2013-04-04 06:30:00,
2013-04-04 00:35:00,34.7,17.0,21.85,NW,315,3.1,3.1,48,0.00,,---,0.00,VWS V14.01,2013-04-04 06:35:00,
2013-04-04 00:40:00,35.1,18.3,21.85,NW,315,3.6,4.9,50,0.00,,---,0.00,VWS V14.01,2013-04-04 06:40:00,
2013-04-04 00:46:00,35.4,18.2,21.85,NW,315,3.1,3.6,49,0.00,,---,0.00,VWS V14.01,2013-04-04 06:46:00,
2013-04-04 00:51:00,35.4,18.6,21.85,NW,315,2.2,3.6,50,0.00,,---,0.00,VWS V14.01,2013-04-04 06:51:00,
2013-04-04 00:56:00,35.6,18.3,21.85,NNW,338,4.9,4.9,49,0.00,,---,0.00,VWS V14.01,2013-04-04 06:56:00,
2013-04-04 01:01:00,35.4,18.6,21.85,NW,315,3.6,3.6,50,0.00,,---,0.00,VWS V14.01,2013-04-04 07:01:00,
2013-04-04 01:06:00,35.2,18.5,21.85,North,0,3.6,3.6,50,0.00,,---,0.00,VWS V14.01,2013-04-04 07:06:00,
2013-04-04 01:11:00,35.2,18.5,21.85,NW,315,3.6,4.0,50,0.00,,---,0.00,VWS V14.01,2013-04-04 07:11:00,
2013-04-04 01:17:00,34.9,18.6,21.85,NW,315,3.1,3.1,51,0.00,,---,0.00,VWS V14.01,2013-04-04 07:17:00,
2013-04-04 01:22:00,34.9,18.6,21.85,NW,315,0.0,3.6,51,0.00,,---,0.00,VWS V14.01,2013-04-04 07:22:00,
2013-04-04 01:27:00,34.9,18.6,21.85,NW,315,2.2,3.1,51,0.00,,---,0.00,VWS V14.01,2013-04-04 07:27:00,
2013-04-04 01:33:00,34.7,18.4,21.85,NW,315,0.0,2.7,51,0.00,,---,0.00,VWS V14.01,2013-04-04 07:33:00,
2013-04-04 01:38:00,34.3,18.5,21.85,NW,315,0.0,0.0,52,0.00,,---,0.00,VWS V14.01,2013-04-04 07:38:00,
2013-04-04 01:44:00,34.3,18.5,21.85,NW,315,4.9,4.9,52,0.00,,---,0.00,VWS V14.01,2013-04-04 07:44:00,
2013-04-04 01:49:00,34.9,19.1,21.85,NW,315,0.0,4.0,52,0.00,,---,0.00,VWS V14.01,2013-04-04 07:49:00,
2013-04-04 01:55:00,34.5,18.7,21.85,NW,315,0.0,0.0,52,0.00,,---,0.00,VWS V14.01,2013-04-04 07:55:00,
2013-04-04 02:00:00,34.7,18.9,21.85,NW,315,2.7,5.4,52,0.00,,---,0.00,VWS V14.01,2013-04-04 08:00:00,
2013-04-04 02:05:00,35.1,19.2,21.85,NE,45,4.9,4.9,52,0.00,,---,0.00,VWS V14.01,2013-04-04 08:05:00,
2013-04-04 02:10:00,35.4,19.1,21.85,NW,315,0.0,2.7,51,0.00,,---,0.00,VWS V14.01,2013-04-04 08:10:00,
2013-04-04 02:16:00,35.2,19.4,21.85,NW,315,2.2,2.2,52,0.00,,---,0.00,VWS V14.01,2013-04-04 08:16:00,
2013-04-04 02:21:00,35.1,19.7,21.85,East,90,0.0,0.0,53,0.00,,---,0.00,VWS V14.01,2013-04-04 08:21:00,
2013-04-04 02:27:00,34.9,20.4,21.85,WSW,248,0.0,0.0,55,0.00,,---,0.00,VWS V14.01,2013-04-04 08:27:00,
2013-04-04 02:32:00,34.5,20.5,21.85,NW,315,0.0,0.0,56,0.00,,---,0.00,VWS V14.01,2013-04-04 08:32:00,
2013-04-04 02:37:00,34.0,20.4,21.85,NW,315,0.0,0.0,57,0.00,,---,0.00,VWS V14.01,2013-04-04 08:37:00,
2013-04-04 02:42:00,33.8,20.2,21.85,NE,45,0.0,0.0,57,0.00,,---,0.00,VWS V14.01,2013-04-04 08:42:00,
2013-04-04 02:47:00,33.4,21.1,21.85,West,270,0.0,0.0,60,0.00,,---,0.00,VWS V14.01,2013-04-04 08:47:00,
2013-04-04 02:52:00,33.6,20.4,21.85,NW,315,0.0,0.0,58,0.00,,---,0.00,VWS V14.01,2013-04-04 08:52:00,
2013-04-04 02:58:00,33.3,20.5,21.85,NW,315,0.0,0.0,59,0.00,,---,0.00,VWS V14.01,2013-04-04 08:58:00,
2013-04-04 03:03:00,32.9,20.9,21.85,NE,45,2.2,2.7,61,0.00,,---,0.00,VWS V14.01,2013-04-04 09:03:00,
2013-04-04 03:08:00,32.7,21.1,21.85,NE,45,3.1,3.1,62,0.00,,---,0.00,VWS V14.01,2013-04-04 09:08:00,
2013-04-04 03:14:00,32.5,20.6,21.85,North,0,0.0,2.2,61,0.00,,---,0.00,VWS V14.01,2013-04-04 09:14:00,
2013-04-04 03:19:00,32.7,20.4,21.85,East,90,0.0,0.0,60,0.00,,---,0.00,VWS V14.01,2013-04-04 09:19:00,
2013-04-04 03:24:00,33.4,20.3,21.85,North,0,2.7,2.7,58,0.00,,---,0.00,VWS V14.01,2013-04-04 09:24:00,
2013-04-04 03:30:00,33.3,19.7,21.85,North,0,0.0,0.0,57,0.00,,---,0.00,VWS V14.01,2013-04-04 09:30:00,
2013-04-04 03:35:00,33.1,19.5,21.85,North,0,0.0,0.0,57,0.00,,---,0.00,VWS V14.01,2013-04-04 09:35:00,
2013-04-04 03:40:00,32.5,19.8,21.85,NE,45,0.0,0.0,59,0.00,,---,0.00,VWS V14.01,2013-04-04 09:40:00,
2013-04-04 03:45:00,32.2,19.9,21.85,NW,315,0.0,0.0,60,0.00,,---,0.00,VWS V14.01,2013-04-04 09:45:00,
2013-04-04 03:50:00,32.4,20.4,21.85,NW,315,0.0,0.0,61,0.00,,---,0.00,VWS V14.01,2013-04-04 09:50:00,
2013-04-04 03:55:00,32.5,20.6,21.85,NW,315,0.0,0.0,61,0.00,,---,0.00,VWS V14.01,2013-04-04 09:55:00,
2013-04-04 04:01:00,32.0,20.5,21.85,West,270,0.0,0.0,62,0.00,,---,0.00,VWS V14.01,2013-04-04 10:01:00,
2013-04-04 04:06:00,32.2,21.4,21.85,North,0,3.6,6.3,64,0.00,,---,0.00,VWS V14.01,2013-04-04 10:06:00,
2013-04-04 04:12:00,32.4,21.2,21.85,North,0,0.0,4.0,63,0.00,,---,0.00,VWS V14.01,2013-04-04 10:12:00,
2013-04-04 04:17:00,32.9,21.3,21.85,NW,315,3.1,4.0,62,0.00,,---,0.00,VWS V14.01,2013-04-04 10:17:00,
2013-04-04 04:22:00,32.7,20.8,21.85,NW,315,3.1,4.0,61,0.00,,---,0.00,VWS V14.01,2013-04-04 10:22:00,
2013-04-04 04:27:00,32.7,20.8,21.85,NW,315,0.0,4.0,61,0.00,,---,0.00,VWS V14.01,2013-04-04 10:27:00,
2013-04-04 04:33:00,32.4,20.8,21.85,NW,315,0.0,0.0,62,0.00,,---,0.00,VWS V14.01,2013-04-04 10:33:00,
2013-04-04 04:38:00,32.4,20.4,21.85,NW,315,0.0,0.0,61,0.00,,---,0.00,VWS V14.01,2013-04-04 10:38:00,
2013-04-04 04:44:00,32.4,20.4,21.85,NW,315,0.0,0.0,61,0.00,,---,0.00,VWS V14.01,2013-04-04 10:44:00,
2013-04-04 04:49:00,32.4,20.8,21.85,NW,315,0.0,0.0,62,0.00,,---,0.00,VWS V14.01,2013-04-04 10:49:00,
2013-04-04 04:55:00,32.7,21.1,21.85,NW,315,0.0,2.7,62,0.00,,---,0.00,VWS V14.01,2013-04-04 10:55:00,
2013-04-04 05:00:00,32.4,20.8,21.85,NE,45,0.0,0.0,62,0.00,,---,0.00,VWS V14.01,2013-04-04 11:00:00,
2013-04-04 05:05:00,32.2,20.6,21.85,North,0,0.0,0.0,62,0.00,,---,0.00,VWS V14.01,2013-04-04 11:05:00,
2013-04-04 05:10:00,32.2,20.3,21.85,East,90,0.0,0.0,61,0.00,,---,0.00,VWS V14.01,2013-04-04 11:10:00,
2013-04-04 05:16:00,31.5,20.3,21.85,East,90,0.0,0.0,63,0.00,,---,0.00,VWS V14.01,2013-04-04 11:16:00,
2013-04-04 05:22:00,31.3,20.5,21.85,NE,45,4.9,5.8,64,0.00,,---,0.00,VWS V14.01,2013-04-04 11:22:00,
2013-04-04 05:27:00,31.3,20.2,21.85,NE,45,0.0,0.0,63,0.00,,---,0.00,VWS V14.01,2013-04-04 11:27:00,
2013-04-04 05:33:00,31.3,20.2,21.82,NNW,338,0.0,0.0,63,0.00,,---,0.00,VWS V14.01,2013-04-04 11:33:00,
2013-04-04 05:38:00,31.3,20.2,21.82,NW,315,0.0,0.0,63,0.00,,---,0.00,VWS V14.01,2013-04-04 11:38:00,
2013-04-04 05:44:00,30.9,20.2,21.82,NW,315,0.0,0.0,64,0.00,,---,0.00,VWS V14.01,2013-04-04 11:44:00,
2013-04-04 05:49:00,30.4,20.0,21.85,NE,45,0.0,0.0,65,0.00,,---,0.00,VWS V14.01,2013-04-04 11:49:00,
2013-04-04 05:54:00,30.0,20.4,21.85,NE,45,0.0,0.0,67,0.00,,---,0.00,VWS V14.01,2013-04-04 11:54:00,
2013-04-04 06:05:00,29.7,20.8,21.82,NW,315,3.6,3.6,69,0.00,,---,0.00,VWS V14.01,2013-04-04 12:05:00,
2013-04-04 06:10:00,30.4,21.4,21.82,NW,315,0.0,0.0,69,0.00,,---,0.00,VWS V14.01,2013-04-04 12:10:00,
2013-04-04 06:16:00,30.4,20.8,21.85,North,0,0.0,0.0,67,0.00,,---,0.00,VWS V14.01,2013-04-04 12:16:00,
2013-04-04 06:21:00,30.0,20.8,21.85,North,0,0.0,0.0,68,0.00,,---,0.00,VWS V14.01,2013-04-04 12:21:00,
2013-04-04 06:26:00,30.4,21.4,21.85,NW,315,2.7,5.4,69,0.00,,---,0.00,VWS V14.01,2013-04-04 12:26:00,
2013-04-04 06:32:00,30.7,21.4,21.82,North,0,0.0,0.0,68,0.00,,---,0.00,VWS V14.01,2013-04-04 12:32:00,
2013-04-04 06:37:00,31.3,21.6,21.82,NW,315,0.0,0.0,67,0.00,,---,0.00,VWS V14.01,2013-04-04 12:37:00,
2013-04-04 06:42:00,32.4,21.9,21.82,NW,315,3.1,3.6,65,0.00,,---,0.00,VWS V14.01,2013-04-04 12:42:00,
2013-04-04 06:47:00,32.2,21.4,21.82,North,0,0.0,0.0,64,0.00,,---,0.00,VWS V14.01,2013-04-04 12:47:00,
2013-04-04 06:53:00,32.0,20.9,21.82,North,0,2.2,3.6,63,0.00,,---,0.00,VWS V14.01,2013-04-04 12:53:00,
2013-04-04 06:58:00,31.6,20.5,21.82,NE,45,0.0,0.0,63,0.00,,---,0.00,VWS V14.01,2013-04-04 12:58:00,
2013-04-04 07:03:00,31.8,21.0,21.85,NE,45,0.0,0.0,64,0.00,,---,0.00,VWS V14.01,2013-04-04 13:03:00,
2013-04-04 07:09:00,31.1,20.4,21.85,North,0,0.0,0.0,64,0.00,,---,0.00,VWS V14.01,2013-04-04 13:09:00,
2013-04-04 07:14:00,31.3,20.9,21.85,North,0,0.0,0.0,65,0.00,,---,0.00,VWS V14.01,2013-04-04 13:14:00,
2013-04-04 07:19:00,31.3,20.5,21.85,North,0,0.0,0.0,64,0.00,,---,0.00,VWS V14.01,2013-04-04 13:19:00,
2013-04-04 07:25:00,30.9,20.5,21.85,NE,45,0.0,0.0,65,0.00,,---,0.00,VWS V14.01,2013-04-04 13:25:00,
2013-04-04 07:30:00,30.7,20.0,21.85,ENE,68,0.0,0.0,64,0.00,,---,0.00,VWS V14.01,2013-04-04 13:30:00,
2013-04-04 07:35:00,30.9,20.2,21.85,East,90,0.0,0.0,64,0.00,,---,0.00,VWS V14.01,2013-04-04 13:35:00,
2013-04-04 07:40:00,30.9,20.2,21.85,SE,135,0.0,0.0,64,0.00,,---,0.00,VWS V14.01,2013-04-04 13:40:00,
2013-04-04 07:45:00,31.8,20.3,21.85,SE,135,2.7,7.2,62,0.00,,---,0.00,VWS V14.01,2013-04-04 13:45:00,
2013-04-04 07:51:00,32.4,20.0,21.85,North,0,0.0,0.0,60,0.00,,---,0.00,VWS V14.01,2013-04-04 13:51:00,
2013-04-04 07:57:00,32.9,19.8,21.85,NW,315,0.0,0.0,58,0.00,,---,0.00,VWS V14.01,2013-04-04 13:57:00,
2013-04-04 08:02:00,33.8,19.8,21.85,NW,315,0.0,2.2,56,0.00,,---,0.00,VWS V14.01,2013-04-04 14:02:00,
2013-04-04 08:07:00,34.3,19.9,21.85,NE,45,4.9,5.4,55,0.00,,---,0.00,VWS V14.01,2013-04-04 14:07:00,
2013-04-04 08:13:00,36.1,19.8,21.85,NW,315,4.0,4.9,51,0.00,,---,0.00,VWS V14.01,2013-04-04 14:13:00,
2013-04-04 08:18:00,37.4,20.0,21.85,NW,315,0.0,2.2,49,0.00,,---,0.00,VWS V14.01,2013-04-04 14:18:00,
2013-04-04 08:23:00,37.8,20.3,21.85,NW,315,3.6,3.6,49,0.00,,---,0.00,VWS V14.01,2013-04-04 14:23:00,
2013-04-04 08:28:00,39.0,19.0,21.85,NW,315,4.0,4.0,44,0.00,,---,0.00,VWS V14.01,2013-04-04 14:28:00,
2013-04-04 08:34:00,39.9,19.8,21.85,NW,315,0.0,2.7,44,0.00,,---,0.00,VWS V14.01,2013-04-04 14:34:00,
2013-04-04 08:39:00,40.6,19.9,21.85,NW,315,4.0,4.0,43,0.00,,---,0.00,VWS V14.01,2013-04-04 14:39:00,
2013-04-04 08:45:00,41.0,19.1,21.85,NW,315,4.9,5.8,41,0.00,,---,0.00,VWS V14.01,2013-04-04 14:45:00,
2013-04-04 08:50:00,41.5,19.6,21.85,NW,315,4.0,4.0,41,0.00,,---,0.00,VWS V14.01,2013-04-04 14:50:00,
2013-04-04 08:55:00,42.3,20.3,21.85,NW,315,4.9,4.9,41,0.00,,---,0.00,VWS V14.01,2013-04-04 14:55:00,
2013-04-04 09:01:00,41.9,19.4,21.85,NW,315,0.0,0.0,40,0.00,,---,0.00,VWS V14.01,2013-04-04 15:01:00,
2013-04-04 09:06:00,41.9,19.4,21.85,WNW,292,0.0,8.1,40,0.00,,---,0.00,VWS V14.01,2013-04-04 15:06:00,
2013-04-04 09:11:00,41.9,19.4,21.85,NW,315,0.0,0.0,40,0.00,,---,0.00,VWS V14.01,2013-04-04 15:11:00,
2013-04-04 09:16:00,42.1,19.5,21.85,NW,315,6.3,6.3,40,0.00,,---,0.00,VWS V14.01,2013-04-04 15:16:00,
2013-04-04 09:22:00,42.4,19.8,21.85,NW,315,4.0,6.3,40,0.00,,---,0.00,VWS V14.01,2013-04-04 15:22:00,
2013-04-04 09:27:00,42.8,19.6,21.85,NW,315,3.6,4.0,39,0.00,,---,0.00,VWS V14.01,2013-04-04 15:27:00,
2013-04-04 09:32:00,43.5,20.2,21.85,NW,315,2.7,5.4,39,0.00,,---,0.00,VWS V14.01,2013-04-04 15:32:00,
2013-04-04 09:38:00,44.1,20.7,21.85,NW,315,2.7,5.8,39,0.00,,---,0.00,VWS V14.01,2013-04-04 15:38:00,
2013-04-04 09:43:00,44.6,20.6,21.85,South,180,0.0,4.5,38,0.00,,---,0.00,VWS V14.01,2013-04-04 15:43:00,
2013-04-04 09:48:00,44.1,20.1,21.85,West,270,4.0,10.1,38,0.00,,---,0.00,VWS V14.01,2013-04-04 15:48:00,
2013-04-04 09:54:00,43.5,19.6,21.85,NW,315,2.7,7.2,38,0.00,,---,0.00,VWS V14.01,2013-04-04 15:54:00,
2013-04-04 09:59:00,44.6,20.6,21.85,NW,315,7.6,7.6,38,0.00,,---,0.00,VWS V14.01,2013-04-04 15:59:00,
2013-04-04 10:05:00,44.8,20.7,21.85,NW,315,2.2,7.2,38,0.00,,---,0.00,VWS V14.01,2013-04-04 16:05:00,
2013-04-04 10:11:00,45.5,21.4,21.85,WNW,292,4.5,4.5,38,0.00,,---,0.00,VWS V14.01,2013-04-04 16:11:00,
2013-04-04 10:16:00,45.9,21.7,21.85,SW,225,10.5,10.5,38,0.00,,---,0.00,VWS V14.01,2013-04-04 16:16:00,
2013-04-04 10:21:00,45.5,20.8,21.85,WNW,292,3.1,9.2,37,0.00,,---,0.00,VWS V14.01,2013-04-04 16:21:00,
2013-04-04 10:27:00,45.9,21.7,21.85,WNW,292,8.3,8.3,38,0.00,,---,0.00,VWS V14.01,2013-04-04 16:27:00,
2013-04-04 10:32:00,45.5,20.8,21.85,NW,315,7.6,10.5,37,0.00,,---,0.00,VWS V14.01,2013-04-04 16:32:00,
2013-04-04 10:37:00,45.1,20.4,21.85,NW,315,5.8,7.6,37,0.00,,---,0.00,VWS V14.01,2013-04-04 16:37:00,
2013-04-04 10:43:00,44.6,20.0,21.85,NW,315,5.8,5.8,37,0.00,,---,0.00,VWS V14.01,2013-04-04 16:43:00,
2013-04-04 10:48:00,44.8,20.1,21.85,WNW,292,7.6,7.6,37,0.00,,---,0.00,VWS V14.01,2013-04-04 16:48:00,
2013-04-04 10:53:00,44.6,20.0,21.85,SSW,202,6.3,6.3,37,0.00,,---,0.00,VWS V14.01,2013-04-04 16:53:00,
2013-04-04 10:58:00,45.5,20.8,21.85,NW,315,4.0,6.3,37,0.00,,---,0.00,VWS V14.01,2013-04-04 16:58:00,
2013-04-04 11:04:00,45.5,20.8,21.85,West,270,3.6,8.1,37,0.00,,---,0.00,VWS V14.01,2013-04-04 17:04:00,
2013-04-04 11:09:00,46.2,21.4,21.85,SW,225,5.4,5.4,37,0.00,,---,0.00,VWS V14.01,2013-04-04 17:09:00,
2013-04-04 11:15:00,46.8,21.2,21.85,NW,315,2.7,10.1,36,0.00,,---,0.00,VWS V14.01,2013-04-04 17:15:00,
2013-04-04 11:20:00,46.8,21.2,21.85,NW,315,11.9,11.9,36,0.00,,---,0.00,VWS V14.01,2013-04-04 17:20:00,
2013-04-04 11:25:00,46.9,21.4,21.85,West,270,6.3,6.3,36,0.00,,---,0.00,VWS V14.01,2013-04-04 17:25:00,
2013-04-04 11:31:00,47.8,22.2,21.85,NW,315,4.0,5.4,36,0.00,,---,0.00,VWS V14.01,2013-04-04 17:31:00,
2013-04-04 11:37:00,47.3,21.0,21.85,NW,315,5.4,7.6,35,0.00,,---,0.00,VWS V14.01,2013-04-04 17:37:00,
2013-04-04 11:42:00,47.3,21.0,21.85,NW,315,5.4,5.4,35,0.00,,---,0.00,VWS V14.01,2013-04-04 17:42:00,
2013-04-04 11:47:00,47.1,20.9,21.85,West,270,0.0,0.0,35,0.00,,---,0.00,VWS V14.01,2013-04-04 17:47:00,
2013-04-04 11:52:00,47.5,20.5,21.85,NW,315,4.0,4.0,34,0.00,,---,0.00,VWS V14.01,2013-04-04 17:52:00,
2013-04-04 11:58:00,47.3,21.0,21.85,NW,315,0.0,3.6,35,0.00,,---,0.00,VWS V14.01,2013-04-04 17:58:00,
2013-04-04 12:03:00,47.3,20.4,21.85,SSW,202,3.6,8.1,34,0.00,,---,0.00,VWS V14.01,2013-04-04 18:03:00,
2013-04-04 12:08:00,47.5,20.5,21.85,West,270,7.2,9.6,34,0.00,,---,0.00,VWS V14.01,2013-04-04 18:08:00,
2013-04-04 12:13:00,46.8,19.9,21.85,NW,315,3.6,6.3,34,0.00,,---,0.00,VWS V14.01,2013-04-04 18:13:00,
2013-04-04 12:20:00,46.2,18.7,21.85,NW,315,9.2,9.2,33,0.00,,---,0.00,VWS V14.01,2013-04-04 18:20:00,
2013-04-04 12:25:00,47.5,19.8,21.85,West,270,2.7,7.6,33,0.00,,---,0.00,VWS V14.01,2013-04-04 18:25:00,
2013-04-04 12:30:00,47.3,19.0,21.85,West,270,5.4,5.8,32,0.00,,---,0.00,VWS V14.01,2013-04-04 18:30:00,
2013-04-04 12:35:00,48.0,20.3,21.85,NNW,338,4.9,5.8,33,0.00,,---,0.00,VWS V14.01,2013-04-04 18:35:00,
2013-04-04 12:41:00,48.4,19.9,21.85,NW,315,4.0,8.7,32,0.00,,---,0.00,VWS V14.01,2013-04-04 18:41:00,
2013-04-04 12:46:00,47.8,20.1,21.85,NW,315,4.0,9.6,33,0.00,,---,0.00,VWS V14.01,2013-04-04 18:46:00,
2013-04-04 12:51:00,48.2,19.7,21.85,WNW,292,3.6,8.7,32,0.00,,---,0.00,VWS V14.01,2013-04-04 18:51:00,
2013-04-04 12:56:00,48.7,20.2,21.85,NW,315,7.6,7.6,32,0.00,,---,0.00,VWS V14.01,2013-04-04 18:56:00,
2013-04-04 13:01:00,47.7,19.3,21.85,NW,315,5.4,8.1,32,0.00,,---,0.00,VWS V14.01,2013-04-04 19:01:00,
2013-04-04 13:06:00,48.7,20.2,21.85,WSW,248,3.6,4.9,32,0.00,,---,0.00,VWS V14.01,2013-04-04 19:06:00,
2013-04-04 13:12:00,49.1,20.5,21.85,NW,315,3.6,8.3,32,0.00,,---,0.00,VWS V14.01,2013-04-04 19:12:00,
2013-04-04 13:17:00,49.3,20.7,21.82,NW,315,9.6,9.6,32,0.00,,---,0.00,VWS V14.01,2013-04-04 19:17:00,
2013-04-04 13:22:00,48.9,19.6,21.82,NW,315,5.4,10.1,31,0.00,,---,0.00,VWS V14.01,2013-04-04 19:22:00,
2013-04-04 13:27:00,48.9,19.6,21.82,West,270,4.0,6.3,31,0.00,,---,0.00,VWS V14.01,2013-04-04 19:27:00,
2013-04-04 13:33:00,48.9,19.6,21.82,WNW,292,3.6,10.5,31,0.00,,---,0.00,VWS V14.01,2013-04-04 19:33:00,
2013-04-04 13:39:00,49.3,19.9,21.82,NW,315,2.7,7.2,31,0.00,,---,0.00,VWS V14.01,2013-04-04 19:39:00,
2013-04-04 13:45:00,50.0,19.8,21.82,WNW,292,3.1,7.6,30,0.00,,---,0.00,VWS V14.01,2013-04-04 19:45:00,
2013-04-04 13:50:00,49.3,19.9,21.82,WNW,292,3.1,7.6,31,0.00,,---,0.00,VWS V14.01,2013-04-04 19:50:00,
2013-04-04 13:55:00,48.9,19.6,21.82,NW,315,7.6,7.6,31,0.00,,---,0.00,VWS V14.01,2013-04-04 19:55:00,
2013-04-04 14:01:00,50.0,19.8,21.82,West,270,3.6,4.9,30,0.00,,---,0.00,VWS V14.01,2013-04-04 20:01:00,
2013-04-04 14:06:00,49.1,19.8,21.82,West,270,3.6,7.2,31,0.00,,---,0.00,VWS V14.01,2013-04-04 20:06:00,
2013-04-04 14:12:00,50.7,21.2,21.82,NW,315,3.6,3.6,31,0.00,,---,0.00,VWS V14.01,2013-04-04 20:12:00,
2013-04-04 14:17:00,50.5,20.3,21.82,WNW,292,7.6,8.7,30,0.00,,---,0.00,VWS V14.01,2013-04-04 20:17:00,
2013-04-04 14:22:00,51.1,20.8,21.82,West,270,3.6,3.6,30,0.00,,---,0.00,VWS V14.01,2013-04-04 20:22:00,
2013-04-04 14:27:00,50.4,20.1,21.82,NW,315,7.6,7.6,30,0.00,,---,0.00,VWS V14.01,2013-04-04 20:27:00,
2013-04-04 14:32:00,50.9,20.6,21.85,SW,225,4.0,5.4,30,0.00,,---,0.00,VWS V14.01,2013-04-04 20:32:00,
2013-04-04 14:38:00,51.3,20.9,21.85,NW,315,0.0,0.0,30,0.00,,---,0.00,VWS V14.01,2013-04-04 20:38:00,
2013-04-04 14:43:00,51.6,21.2,21.85,NW,315,2.7,7.2,30,0.00,,---,0.00,VWS V14.01,2013-04-04 20:43:00,
2013-04-04 14:48:00,51.3,20.9,21.82,West,270,5.4,5.4,30,0.00,,---,0.00,VWS V14.01,2013-04-04 20:48:00,
2013-04-04 14:55:00,52.0,21.5,21.82,NW,315,3.6,5.4,30,0.00,,---,0.00,VWS V14.01,2013-04-04 20:55:00,
2013-04-04 15:00:00,51.8,20.6,21.82,NW,315,3.1,5.4,29,0.00,,---,0.00,VWS V14.01,2013-04-04 21:00:00,
2013-04-04 15:05:00,52.3,21.0,21.82,NW,315,2.2,5.8,29,0.00,,---,0.00,VWS V14.01,2013-04-04 21:05:00,
2013-04-04 15:10:00,53.1,21.7,21.82,NW,315,0.0,2.7,29,0.00,,---,0.00,VWS V14.01,2013-04-04 21:10:00,
2013-04-04 15:15:00,52.7,22.2,21.82,WNW,292,2.7,2.7,30,0.00,,---,0.00,VWS V14.01,2013-04-04 21:15:00,
2013-04-04 15:20:00,51.8,20.6,21.82,NW,315,4.9,6.7,29,0.00,,---,0.00,VWS V14.01,2013-04-04 21:20:00,
2013-04-04 15:26:00,51.3,20.9,21.82,NW,315,4.0,5.4,30,0.00,,---,0.00,VWS V14.01,2013-04-04 21:26:00,
2013-04-04 15:31:00,52.0,19.9,21.82,NW,315,3.6,5.4,28,0.00,,---,0.00,VWS V14.01,2013-04-04 21:31:00,
2013-04-04 15:37:00,52.3,21.0,21.82,NW,315,0.0,4.9,29,0.00,,---,0.00,VWS V14.01,2013-04-04 21:37:00,
2013-04-04 15:42:00,52.0,20.7,21.82,NW,315,6.3,6.3,29,0.00,,---,0.00,VWS V14.01,2013-04-04 21:42:00,
2013-04-04 15:47:00,52.3,21.0,21.82,WNW,292,0.0,3.6,29,0.00,,---,0.00,VWS V14.01,2013-04-04 21:47:00,
2013-04-04 15:53:00,53.1,21.7,21.82,WNW,292,2.2,2.7,29,0.00,,---,0.00,VWS V14.01,2013-04-04 21:53:00,
2013-04-04 15:58:00,52.2,20.9,21.82,NW,315,2.7,2.7,29,0.00,,---,0.00,VWS V14.01,2013-04-04 21:58:00,
2013-04-04 16:04:00,51.1,20.0,21.82,NW,315,3.6,3.6,29,0.00,,---,0.00,VWS V14.01,2013-04-04 22:04:00,
2013-04-04 16:09:00,51.1,20.0,21.82,West,270,0.0,0.0,29,0.00,,---,0.00,VWS V14.01,2013-04-04 22:09:00,
2013-04-04 16:15:00,50.7,19.6,21.82,West,270,0.0,0.0,29,0.00,,---,0.00,VWS V14.01,2013-04-04 22:15:00,
2013-04-04 16:20:00,50.7,19.6,21.82,WNW,292,0.0,0.0,29,0.00,,---,0.00,VWS V14.01,2013-04-04 22:20:00,
2013-04-04 16:25:00,51.1,20.0,21.82,NW,315,2.7,2.7,29,0.00,,---,0.00,VWS V14.01,2013-04-04 22:25:00,
2013-04-04 16:30:00,51.6,20.4,21.82,NW,315,0.0,2.7,29,0.00,,---,0.00,VWS V14.01,2013-04-04 22:30:00,
2013-04-04 16:35:00,52.3,21.0,21.82,WNW,292,3.1,3.1,29,0.00,,---,0.00,VWS V14.01,2013-04-04 22:35:00,
2013-04-04 16:41:00,54.1,22.6,21.82,NW,315,0.0,2.2,29,0.00,,---,0.00,VWS V14.01,2013-04-04 22:41:00,
2013-04-04 16:46:00,55.0,22.5,21.79,WNW,292,0.0,2.2,28,0.00,,---,0.00,VWS V14.01,2013-04-04 22:46:00,
2013-04-04 16:51:00,55.8,23.2,21.79,NW,315,0.0,5.4,28,0.00,,---,0.00,VWS V14.01,2013-04-04 22:51:00,
2013-04-04 16:56:00,55.6,23.0,21.79,NW,315,2.2,5.4,28,0.00,,---,0.00,VWS V14.01,2013-04-04 22:56:00,
2013-04-04 17:02:00,56.8,23.2,21.82,North,0,0.0,0.0,27,0.00,,---,0.00,VWS V14.01,2013-04-04 23:02:00,
2013-04-04 17:08:00,56.1,23.5,21.82,WNW,292,4.0,5.8,28,0.00,,---,0.00,VWS V14.01,2013-04-04 23:08:00,
2013-04-04 17:13:00,55.8,23.2,21.82,SSW,202,0.0,3.6,28,0.00,,---,0.00,VWS V14.01,2013-04-04 23:13:00,
2013-04-04 17:18:00,55.2,23.5,21.82,West,270,0.0,2.7,29,0.00,,---,0.00,VWS V14.01,2013-04-04 23:18:00,
2013-04-04 17:23:00,55.4,22.9,21.82,SW,225,2.7,2.7,28,0.00,,---,0.00,VWS V14.01,2013-04-04 23:23:00,
2013-04-04 17:29:00,54.9,22.4,21.82,WNW,292,0.0,4.0,28,0.00,,---,0.00,VWS V14.01,2013-04-04 23:29:00,
2013-04-04 17:34:00,53.8,21.5,21.82,NW,315,3.1,3.1,28,0.00,,---,0.00,VWS V14.01,2013-04-04 23:34:00,
2013-04-04 17:40:00,54.1,21.8,21.82,South,180,2.7,5.4,28,0.00,,---,0.00,VWS V14.01,2013-04-04 23:40:00,
2013-04-04 17:45:00,53.8,21.5,21.82,NW,315,2.2,6.3,28,0.00,,---,0.00,VWS V14.01,2013-04-04 23:45:00,
2013-04-04 17:50:00,53.8,21.5,21.82,West,270,3.1,5.8,28,0.00,,---,0.00,VWS V14.01,2013-04-04 23:50:00,
2013-04-04 17:55:00,53.8,22.3,21.82,West,270,0.0,3.6,29,0.00,,---,0.00,VWS V14.01,2013-04-04 23:55:00,
2013-04-04 18:00:00,53.4,22.0,21.82,NW,315,0.0,2.7,29,0.00,,---,0.00,VWS V14.01,2013-04-05 00:00:00,
2013-04-04 18:05:00,53.2,21.8,21.82,NW,315,0.0,5.8,29,0.00,,---,0.00,VWS V14.01,2013-04-05 00:05:00,
2013-04-04 18:10:00,52.7,21.4,21.82,NW,315,4.0,4.9,29,0.00,,---,0.00,VWS V14.01,2013-04-05 00:10:00,
2013-04-04 18:17:00,52.7,21.4,21.82,NW,315,3.1,3.6,29,0.00,,---,0.00,VWS V14.01,2013-04-05 00:17:00,
2013-04-04 18:22:00,50.9,19.8,21.82,NW,315,4.0,4.0,29,0.00,,---,0.00,VWS V14.01,2013-04-05 00:22:00,
2013-04-04 18:28:00,50.7,20.4,21.82,South,180,0.0,0.0,30,0.00,,---,0.00,VWS V14.01,2013-04-05 00:28:00,
2013-04-04 18:33:00,50.0,19.8,21.82,WNW,292,0.0,0.0,30,0.00,,---,0.00,VWS V14.01,2013-04-05 00:33:00,
2013-04-04 18:38:00,49.5,19.3,21.82,WNW,292,0.0,0.0,30,0.00,,---,0.00,VWS V14.01,2013-04-05 00:38:00,
2013-04-04 18:43:00,49.1,19.0,21.82,WNW,292,0.0,0.0,30,0.00,,---,0.00,VWS V14.01,2013-04-05 00:43:00,
2013-04-04 18:49:00,48.6,19.3,21.82,WNW,292,0.0,0.0,31,0.00,,---,0.00,VWS V14.01,2013-04-05 00:49:00,
2013-04-04 18:54:00,48.2,19.0,21.82,WNW,292,0.0,0.0,31,0.00,,---,0.00,VWS V14.01,2013-04-05 00:54:00,
2013-04-04 19:00:00,47.8,18.7,21.82,WNW,292,0.0,0.0,31,0.00,,---,0.00,VWS V14.01,2013-04-05 01:00:00,
2013-04-04 19:05:00,47.3,18.2,21.82,WNW,292,0.0,0.0,31,0.00,,---,0.00,VWS V14.01,2013-04-05 01:05:00,
2013-04-04 19:10:00,46.8,17.7,21.82,WNW,292,0.0,0.0,31,0.00,,---,0.00,VWS V14.01,2013-04-05 01:10:00,
2013-04-04 19:15:00,46.6,17.6,21.82,WNW,292,0.0,0.0,31,0.00,,---,0.00,VWS V14.01,2013-04-05 01:15:00,
2013-04-04 19:20:00,45.9,17.7,21.82,WNW,292,0.0,0.0,32,0.00,,---,0.00,VWS V14.01,2013-04-05 01:20:00,
2013-04-04 19:25:00,45.3,17.9,21.82,WNW,292,0.0,0.0,33,0.00,,---,0.00,VWS V14.01,2013-04-05 01:25:00,
2013-04-04 19:31:00,44.4,18.5,21.82,WNW,292,0.0,0.0,35,0.00,,---,0.00,VWS V14.01,2013-04-05 01:31:00,
2013-04-04 19:36:00,43.5,17.7,21.82,WNW,292,0.0,0.0,35,0.00,,---,0.00,VWS V14.01,2013-04-05 01:36:00,
2013-04-04 19:41:00,43.0,17.2,21.82,WNW,292,0.0,0.0,35,0.00,,---,0.00,VWS V14.01,2013-04-05 01:41:00,
2013-04-04 19:47:00,42.4,17.4,21.82,WNW,292,0.0,0.0,36,0.00,,---,0.00,VWS V14.01,2013-04-05 01:47:00,
2013-04-04 19:52:00,41.7,16.8,21.82,WNW,292,0.0,0.0,36,0.00,,---,0.00,VWS V14.01,2013-04-05 01:52:00,
2013-04-04 19:57:00,41.4,17.7,21.82,WNW,292,0.0,0.0,38,0.00,,---,0.00,VWS V14.01,2013-04-05 01:57:00,
2013-04-04 20:03:00,40.6,17.6,21.82,WNW,292,0.0,0.0,39,0.00,,---,0.00,VWS V14.01,2013-04-05 02:03:00,
2013-04-04 20:08:00,39.9,17.0,21.82,WNW,292,0.0,0.0,39,0.00,,---,0.00,VWS V14.01,2013-04-05 02:08:00,
2013-04-04 20:13:00,39.6,17.2,21.82,WNW,292,0.0,0.0,40,0.00,,---,0.00,VWS V14.01,2013-04-05 02:13:00,
2013-04-04 20:18:00,39.4,17.1,21.82,WNW,292,0.0,0.0,40,0.00,,---,0.00,VWS V14.01,2013-04-05 02:18:00,
2013-04-04 20:24:00,39.0,17.3,21.82,WNW,292,0.0,0.0,41,0.00,,---,0.00,VWS V14.01,2013-04-05 02:24:00,
2013-04-04 20:29:00,38.5,17.4,21.82,WNW,292,0.0,0.0,42,0.00,,---,0.00,VWS V14.01,2013-04-05 02:29:00,
2013-04-04 20:34:00,38.1,17.6,21.82,WNW,292,0.0,0.0,43,0.00,,---,0.00,VWS V14.01,2013-04-05 02:34:00,
2013-04-04 20:39:00,37.9,17.5,21.82,WNW,292,0.0,0.0,43,0.00,,---,0.00,VWS V14.01,2013-04-05 02:39:00,
2013-04-04 20:44:00,37.6,17.7,21.82,WNW,292,0.0,0.0,44,0.00,,---,0.00,VWS V14.01,2013-04-05 02:44:00,
2013-04-04 20:50:00,37.2,17.9,21.82,WNW,292,0.0,0.0,45,0.00,,---,0.00,VWS V14.01,2013-04-05 02:50:00,
2013-04-04 20:55:00,36.9,18.0,21.82,WNW,292,0.0,0.0,46,0.00,,---,0.00,VWS V14.01,2013-04-05 02:55:00,
2013-04-04 21:00:00,36.7,17.9,21.82,WNW,292,0.0,0.0,46,0.00,,---,0.00,VWS V14.01,2013-04-05 03:00:00,
2013-04-04 21:05:00,36.5,17.7,21.82,WNW,292,0.0,0.0,46,0.00,,---,0.00,VWS V14.01,2013-04-05 03:05:00,
2013-04-04 21:11:00,36.1,18.8,21.82,WNW,292,0.0,0.0,49,0.00,,---,0.00,VWS V14.01,2013-04-05 03:11:00,
2013-04-04 21:16:00,35.8,18.5,21.82,WNW,292,0.0,0.0,49,0.00,,---,0.00,VWS V14.01,2013-04-05 03:16:00,
2013-04-04 21:22:00,35.6,17.4,21.82,WNW,292,0.0,0.0,47,0.00,,---,0.00,VWS V14.01,2013-04-05 03:22:00,
2013-04-04 21:28:00,35.2,18.5,21.82,WNW,292,0.0,0.0,50,0.00,,---,0.00,VWS V14.01,2013-04-05 03:28:00,
2013-04-04 21:33:00,35.1,18.3,21.82,WNW,292,0.0,0.0,50,0.00,,---,0.00,VWS V14.01,2013-04-05 03:33:00,
2013-04-04 21:39:00,34.7,18.4,21.82,WNW,292,0.0,0.0,51,0.00,,---,0.00,VWS V14.01,2013-04-05 03:39:00,
2013-04-04 21:44:00,34.5,18.3,21.82,WNW,292,0.0,0.0,51,0.00,,---,0.00,VWS V14.01,2013-04-05 03:44:00,
2013-04-04 21:49:00,34.5,18.7,21.82,WNW,292,0.0,0.0,52,0.00,,---,0.00,VWS V14.01,2013-04-05 03:49:00,
2013-04-04 21:55:00,34.3,18.5,21.82,WNW,292,0.0,0.0,52,0.00,,---,0.00,VWS V14.01,2013-04-05 03:55:00,
2013-04-04 22:00:00,34.3,19.0,21.82,WNW,292,0.0,0.0,53,0.00,,---,0.00,VWS V14.01,2013-04-05 04:00:00,
2013-04-04 22:03:00,34.3,18.5,21.82,WNW,292,0.0,0.0,52,0.00,,---,0.00,VWS V14.01,2013-04-05 04:03:00,
2013-04-04 22:05:00,34.3,18.5,21.82,WNW,292,0.0,0.0,52,0.00,,---,0.00,VWS V14.01,2013-04-05 04:05:00,
2013-04-04 22:06:00,34.3,18.5,21.82,WNW,292,0.0,0.0,52,0.00,,---,0.00,VWS V14.01,2013-04-05 04:06:00,
2013-04-04 22:11:00,34.2,18.8,21.82,WNW,292,0.0,0.0,53,0.00,,---,0.00,VWS V14.01,2013-04-05 04:11:00,
2013-04-04 22:17:00,34.0,19.1,21.82,WNW,292,0.0,0.0,54,0.00,,---,0.00,VWS V14.01,2013-04-05 04:17:00,
2013-04-04 22:22:00,34.0,19.1,21.82,WNW,292,0.0,0.0,54,0.00,,---,0.00,VWS V14.01,2013-04-05 04:22:00,
2013-04-04 22:28:00,34.0,18.2,21.82,WNW,292,0.0,0.0,52,0.00,,---,0.00,VWS V14.01,2013-04-05 04:28:00,
2013-04-04 22:34:00,34.0,18.2,21.82,WNW,292,0.0,0.0,52,0.00,,---,0.00,VWS V14.01,2013-04-05 04:34:00,
2013-04-04 22:39:00,34.0,18.2,21.82,WNW,292,0.0,0.0,52,0.00,,---,0.00,VWS V14.01,2013-04-05 04:39:00,
2013-04-04 22:44:00,34.0,18.7,21.82,WNW,292,0.0,0.0,53,0.00,,---,0.00,VWS V14.01,2013-04-05 04:44:00,
2013-04-04 22:50:00,33.8,18.5,21.82,WNW,292,0.0,0.0,53,0.00,,---,0.00,VWS V14.01,2013-04-05 04:50:00,
2013-04-04 22:55:00,33.8,18.9,21.82,WNW,292,0.0,0.0,54,0.00,,---,0.00,VWS V14.01,2013-04-05 04:55:00,
2013-04-04 23:01:00,34.3,17.6,21.79,WNW,292,0.0,0.0,50,0.00,,---,0.00,VWS V14.01,2013-04-05 05:01:00,
2013-04-04 23:06:00,35.1,16.9,21.79,WNW,292,0.0,0.0,47,0.00,,---,0.00,VWS V14.01,2013-04-05 05:06:00,
2013-04-04 23:12:00,36.9,17.0,21.79,WNW,292,0.0,4.0,44,0.00,,---,0.00,VWS V14.01,2013-04-05 05:12:00,
2013-04-04 23:17:00,38.8,17.7,21.79,WNW,292,0.0,0.0,42,0.00,,---,0.00,VWS V14.01,2013-04-05 05:17:00,
2013-04-04 23:23:00,39.7,17.4,21.79,NW,315,0.0,0.0,40,0.00,,---,0.00,VWS V14.01,2013-04-05 05:23:00,
2013-04-04 23:28:00,39.7,17.4,21.79,NW,315,0.0,2.2,40,0.00,,---,0.00,VWS V14.01,2013-04-05 05:28:00,
2013-04-04 23:33:00,40.3,17.9,21.79,NW,315,0.0,0.0,40,0.00,,---,0.00,VWS V14.01,2013-04-05 05:33:00,
2013-04-04 23:38:00,40.6,17.6,21.79,NW,315,0.0,0.0,39,0.00,,---,0.00,VWS V14.01,2013-04-05 05:38:00,
2013-04-04 23:43:00,40.6,17.6,21.79,NW,315,0.0,0.0,39,0.00,,---,0.00,VWS V14.01,2013-04-05 05:43:00,
2013-04-04 23:49:00,40.6,17.6,21.79,NW,315,0.0,0.0,39,0.00,,---,0.00,VWS V14.01,2013-04-05 05:49:00,
2013-04-04 23:54:00,40.3,17.9,21.79,NW,315,0.0,0.0,40,0.00,,---,0.00,VWS V14.01,2013-04-05 05:54:00,
2013-04-04 23:59:00,39.9,17.0,21.79,NW,315,0.0,0.0,39,0.00,,---,0.00,VWS V14.01,2013-04-05 05:59:00,